This demonstration page uses our WeatherBlox Daily Observations layout. Learn more.

Left ArrowRight Arrow

Hourly Observations for June 1, 2019

Temp ( °F °C ) Dew Point ( °F °C ) Humidity (%) Winds ( mph kmh ) Pressure ( in mb ) Visibility ( mi km ) Precip ( " mm )
12:53 am 00:53 Clear 51 10.6 47 8.3 86 86 SSW 3 6 30.00 1016 10 16 0.00 0.00
1:53 am 01:53 Clear 49 9.4 46 7.8 90 90 Calm 29.99 1016 10 16 0.00 0.00
2:53 am 02:53 Clear 47 8.3 45 7.2 93 93 Calm 29.99 1016 10 16 0.00 0.00
3:53 am 03:53 Clear 49 9.4 46 7.8 90 90 ENE 5 7 29.99 1016 10 16 0.00 0.00
4:53 am 04:53 Clear 47 8.3 45 7.2 93 93 E 3 6 29.99 1016 10 16 0.00 0.00
5:53 am 05:53 Sunny with Mist and Fog 44 6.7 43 6.1 96 96 Calm 30.00 1016 5 8 0.00 0.00
6:53 am 06:53 Sunny 47 8.3 46 7.8 97 97 Calm 30.00 1016 7 11 0.00 0.00
7:53 am 07:53 Sunny 51 10.6 48 8.9 89 89 Calm 29.99 1016 9 14 0.00 0.00
8:53 am 08:53 Sunny 56 13.3 50 10 81 81 Calm 29.99 1016 10 16 0.00 0.00
9:53 am 09:53 Sunny 61 16.1 50 10 67 67 NNW 3 6 29.98 1015 10 16 0.00 0.00
10:53 am 10:53 Sunny 66 18.9 50 10 56 56 VRB 3 6 29.96 1015 10 16 0.00 0.00
11:53 am 11:53 Sunny 70 21.1 50 10 49 49 SW 3 6 29.94 1014 10 16 0.00 0.00
12:53 pm 12:53 Sunny 74 23.3 49 9.4 41 41 VRB 3 6 29.92 1013 10 16 0.00 0.00
1:53 pm 13:53 Sunny 75 23.9 49 9.4 40 40 S 7 11 29.90 1013 10 16 0.00 0.00
2:53 pm 14:53 Sunny 78 25.6 49 9.4 36 36 NW 3 6 29.87 1012 10 16 0.00 0.00
3:53 pm 15:53 Sunny 78 25.6 47 8.3 33 33 Calm 29.86 1011 9 14 0.00 0.00
4:53 pm 16:53 Sunny 78 25.6 46 7.8 32 32 VRB 6 9 29.84 1010 7 11 0.00 0.00
5:53 pm 17:53 Sunny 78 25.6 45 7.2 31 31 SSW 3 6 29.83 1010 7 11 0.00 0.00
6:53 pm 18:53 Hazy 76 24.4 49 9.4 39 39 SW 5 7 29.81 1009 6 10 0.00 0.00
7:53 pm 19:53 Hazy 75 23.9 51 10.6 43 43 Calm 29.80 1009 5 8 0.00 0.00
8:53 pm 20:53 Hazy 70 21.1 55 12.8 59 59 ESE 5 7 29.80 1009 4 6 0.00 0.00
9:53 pm 21:53 Hazy 62 16.7 51 10.6 67 67 SE 7 11 29.80 1009 5 8 0.00 0.00
10:53 pm 22:53 Hazy 62 16.7 50 10 65 65 SE 7 11 29.80 1009 5 8 0.00 0.00
11:53 pm 23:53 Hazy 58 14.4 50 10 75 75 NNW 5 7 29.80 1009 5 8 0.00 0.00

Powered by AerisWeather